Weather History for Sparta, WI

Change the Weather History Date:

Saturday, October 23, 2010

  Actual Average Record
Temperature  
Mean Temperature 50 °F -  
Max Temperature 61 °F 57 °F 82 °F (1963)
Min Temperature 40 °F 36 °F 15 °F (1969)
Degree Days  
Heating Degree Days 14    
Moisture  
Dew Point 47 °F    
Average Humidity 84    
Maximum Humidity 96    
Minimum Humidity 71    
Precipitation  
Precipitation 0.02 in - - ()
Sea Level Pressure  
Sea Level Pressure 29.86 in    
Wind  
Wind Speed 1 mph (South)    
Max Wind Speed 7 mph    
Max Gust Speed -    
Visibility 9 miles    
Events Rain    
Averages and records for this station are not official NWS values.
T = Trace of Precipitation, MM = Missing Value Source: NWS Daily Summary

Daily Weather History Graph

Daily Weather History Graph

Search for Another Location

Airport:

Trip Planner

Search our weather history database for the weather conditions in past years. The results will help you decide how hot, cold, wet, or windy it might be!

Date:

Astronomy

Oct. 23, 2010 Rise Set
Actual Time 7:27 AM CDT 6:06 PM CDT
Civil Twilight 6:58 AM CDT 6:35 PM CDT
Nautical Twilight 6:24 AM CDT 7:09 PM CDT
Astronomical Twilight 5:51 AM CDT 7:42 PM CDT
Moon 6:04 PM CDT (10/23) 8:11 AM CDT (10/23)
Length of Visible Light 11h 37m
Length of Day
10h 38m
Full, 100% of the Moon is Illuminated
Oct 23
Full
Oct 30
Last Quarter
Nov 5
New
Nov 13
First Quarter
Nov 21
Full

Hourly Weather History & Observations

Time (CDT) Temp. Windchill Dew Point Humidity Pressure Visibility Wind Dir Wind Speed Gust Speed Precip Events Conditions
12:15 AM 42.4 °F - 33.6 °F 71% 29.91 in 10.0 mi Calm Calm - N/A   Clear
12:35 AM 42.3 °F 40.5 °F 34.0 °F 72% 29.90 in 10.0 mi East 3.5 mph - N/A   Clear
12:55 AM 42.1 °F - 33.8 °F 72% 29.90 in 10.0 mi Calm Calm - N/A   Clear
1:15 AM 42.1 °F - 33.8 °F 72% 29.91 in 10.0 mi Calm Calm - N/A   Clear
1:35 AM 41.4 °F - 33.4 °F 73% 29.91 in 10.0 mi Calm Calm - N/A   Clear
1:55 AM 40.5 °F - 33.1 °F 75% 29.91 in 10.0 mi Calm Calm - N/A   Clear
2:15 AM 40.3 °F - 33.8 °F 78% 29.91 in 10.0 mi Calm Calm - N/A   Clear
2:35 AM 40.8 °F - 34.0 °F 77% 29.91 in 10.0 mi Calm Calm - N/A   Clear
2:55 AM 40.5 °F - 34.2 °F 78% 29.91 in 10.0 mi Calm Calm - N/A   Clear
3:15 AM 40.6 °F - 34.0 °F 77% 29.91 in 10.0 mi Calm Calm - N/A   Clear
3:35 AM 40.5 °F - 34.7 °F 80% 29.90 in 10.0 mi Calm Calm - N/A   Clear
3:55 AM 43.0 °F - 35.2 °F 74% 29.90 in 10.0 mi Calm Calm - N/A   Scattered Clouds
4:15 AM 43.7 °F - 36.5 °F 76% 29.89 in 10.0 mi Calm Calm - N/A   Mostly Cloudy
4:35 AM 44.8 °F - 37.2 °F 75% 29.89 in 10.0 mi Calm Calm - N/A   Light Drizzle
4:55 AM 44.8 °F - 37.9 °F 77% 29.89 in 10.0 mi Calm Calm - N/A   Scattered Clouds
5:15 AM 45.1 °F - 39.6 °F 81% 29.89 in 10.0 mi Calm Calm - N/A Rain Light Rain
5:35 AM 45.5 °F - 40.3 °F 82% 29.88 in 10.0 mi Calm Calm - N/A   Mostly Cloudy
5:55 AM 46.4 °F - 40.3 °F 79% 29.88 in 10.0 mi Calm Calm - N/A   Mostly Cloudy
6:15 AM 46.9 °F - 41.0 °F 80% 29.88 in 10.0 mi Calm Calm - N/A   Mostly Cloudy
6:35 AM 46.8 °F - 41.9 °F 83% 29.88 in 10.0 mi Calm Calm - N/A   Mostly Cloudy
6:55 AM 47.3 °F - 41.0 °F 79% 29.87 in 10.0 mi Calm Calm - N/A   Mostly Cloudy
7:15 AM 47.5 °F - 40.3 °F 76% 29.87 in 10.0 mi Calm Calm - N/A   Mostly Cloudy
7:35 AM 47.8 °F - 41.7 °F 79% 29.87 in 10.0 mi Calm Calm - N/A   Overcast
7:55 AM 48.6 °F - 42.6 °F 80% 29.87 in 10.0 mi Calm Calm - N/A   Light Drizzle
8:15 AM 53.6 °F - 49.3 °F 85% 29.87 in 7.0 mi SSE 3.5 mph - N/A Rain Rain
8:35 AM 54.1 °F - 51.8 °F 92% 29.87 in 7.0 mi Calm Calm - N/A   Drizzle
8:55 AM 54.5 °F - 51.8 °F 91% 29.87 in 2.5 mi Calm Calm - 0.01 in Rain Rain
9:15 AM 54.1 °F - 52.2 °F 93% 29.86 in 4.0 mi Calm Calm - N/A Rain Light Rain
9:35 AM 53.8 °F - 52.5 °F 95% 29.87 in 3.0 mi Calm Calm - N/A Rain Rain
9:55 AM 54.1 °F - 52.9 °F 95% 29.86 in 4.0 mi Calm Calm - 0.01 in Rain Light Rain
10:15 AM 54.5 °F - 53.1 °F 95% 29.86 in 3.0 mi Calm Calm - N/A Rain Rain
10:35 AM 54.9 °F - 53.6 °F 96% 29.86 in 4.0 mi Calm Calm - N/A Rain Light Rain
10:55 AM 55.4 °F - 53.8 °F 94% 29.86 in 4.0 mi Calm Calm - N/A   Drizzle
11:15 AM 56.7 °F - 54.7 °F 93% 29.86 in 5.0 mi Calm Calm - N/A   Drizzle
11:35 AM 56.8 °F - 54.7 °F 92% 29.86 in 5.0 mi South 3.5 mph - N/A   Drizzle
11:55 AM 57.2 °F - 55.0 °F 92% 29.86 in 7.0 mi SSW 3.5 mph - N/A   Overcast
12:15 PM 58.3 °F - 55.8 °F 91% 29.85 in 10.0 mi South 6.9 mph - N/A   Overcast
12:35 PM 58.5 °F - 55.4 °F 90% 29.84 in 10.0 mi South 3.5 mph - N/A   Overcast
12:55 PM 58.5 °F - 55.6 °F 90% 29.83 in 10.0 mi South 5.8 mph - N/A   Overcast
1:15 PM 59.0 °F - 55.8 °F 89% 29.82 in 10.0 mi South 6.9 mph - N/A   Overcast
1:35 PM 59.4 °F - 55.8 °F 88% 29.82 in 10.0 mi South 5.8 mph - N/A   Overcast
2:15 PM 59.0 °F - 55.4 °F 88% 29.82 in 10.0 mi SSW 5.8 mph - N/A   Overcast
2:35 PM 59.0 °F - 55.4 °F 88% 29.82 in 7.0 mi SW 3.5 mph - N/A   Overcast
2:55 PM 59.2 °F - 55.6 °F 88% 29.81 in 7.0 mi Calm Calm - N/A   Overcast
3:15 PM 60.4 °F - 56.1 °F 86% 29.82 in 7.0 mi SW 4.6 mph - N/A   Overcast
3:35 PM 61.0 °F - 56.1 °F 84% 29.82 in 10.0 mi Calm Calm - N/A   Overcast
3:55 PM 61.9 °F - 56.1 °F 81% 29.82 in 10.0 mi SSW 4.6 mph - N/A   Overcast
4:15 PM 61.5 °F - 55.8 °F 81% 29.82 in 10.0 mi SW 3.5 mph - N/A   Overcast
4:35 PM 61.7 °F - 55.8 °F 81% 29.82 in 10.0 mi Calm Calm - N/A   Overcast
4:55 PM 61.0 °F - 56.3 °F 85% 29.82 in 10.0 mi South 4.6 mph - N/A   Overcast
5:35 PM 60.8 °F - 55.9 °F 84% 29.83 in 10.0 mi South 4.6 mph - N/A   Overcast
5:55 PM 60.6 °F - 55.6 °F 83% 29.82 in 10.0 mi Calm Calm - N/A   Overcast
6:35 PM 57.6 °F - 55.4 °F 92% 29.83 in 10.0 mi Calm Calm - N/A   Overcast
6:55 PM 56.5 °F - 54.7 °F 94% 29.83 in 7.0 mi Calm Calm - N/A   Overcast
7:15 PM 58.1 °F - 55.4 °F 91% 29.85 in 10.0 mi ESE 4.6 mph - N/A   Overcast
7:35 PM 57.9 °F - 55.4 °F 91% 29.85 in 10.0 mi East 3.5 mph - N/A   Overcast
7:55 PM 57.9 °F - 55.4 °F 91% 29.85 in 10.0 mi ESE 3.5 mph - N/A   Overcast
8:15 PM 58.1 °F - 55.4 °F 91% 29.85 in 10.0 mi ESE 4.6 mph - N/A   Overcast
8:35 PM 58.1 °F - 55.4 °F 91% 29.84 in 10.0 mi East 3.5 mph - N/A   Overcast
8:55 PM 58.3 °F - 55.4 °F 90% 29.83 in 10.0 mi East 3.5 mph - N/A   Overcast
9:15 PM 58.3 °F - 55.4 °F 90% 29.83 in 10.0 mi East 3.5 mph - N/A   Overcast
9:35 PM 57.2 °F - 54.7 °F 91% 29.82 in 10.0 mi Calm Calm - N/A   Scattered Clouds
9:55 PM 55.8 °F - 53.8 °F 93% 29.82 in 7.0 mi Calm Calm - N/A   Scattered Clouds
10:15 PM 56.3 °F - 54.5 °F 94% 29.82 in 7.0 mi Calm Calm - N/A   Clear
10:35 PM 55.6 °F - 54.0 °F 94% 29.82 in 7.0 mi East 4.6 mph - N/A   Clear
10:55 PM 56.3 °F - 54.5 °F 94% 29.82 in 5.0 mi East 4.6 mph - N/A   Mostly Cloudy
11:15 PM 56.7 °F - 54.7 °F 93% 29.81 in 7.0 mi ENE 5.8 mph - N/A   Mostly Cloudy
11:35 PM 57.2 °F - 54.9 °F 92% 29.81 in 7.0 mi North 3.5 mph - N/A   Scattered Clouds
11:55 PM 57.0 °F - 54.9 °F 92% 29.81 in 7.0 mi ESE 4.6 mph - N/A   Overcast